Regional Weather Roundup
Issued by NWS State College, PA

Home | Current Version | Previous Version | Graphics & Text | Print | Product List | Glossary Off
Versions: 1 2 3 4 5 6 7 8 9 10 11 12 13 14 15 16 17 18 19 20 21 22 23 24 25 26 27 28 29 30 31 32 33 34 35 36 37 38 39 40 41 42 43 44 45 46 47 48 49 50

635
ASUS41 KCTP 171710
RWRCTP

REGIONAL WEATHER ROUNDUP
NATIONAL WEATHER SERVICE STATE COLLEGE PA
100 PM EDT TUE OCT 17 2017

Note: "fair" indicates few or no clouds below 12,000 feet with no
significant weather and/or obstructions to visibility.

* = STATION THAT DOES NOT REPORT PRECIPITATION /E.G. RAIN...SNOW...ETC/
    THUNDER OR FOG.

PAZ002>004-007>009-013>016-020>023-029>032-171800-
WESTERN PENNSYLVANIA

CITY           SKY/WX    TMP DP  RH WIND       PRES   REMARKS
ERIE           SUNNY     61  38  42 W13G25    30.25F
MEADVILLE      SUNNY     57  39  51 SW12      30.28F
FRANKLIN*      SUNNY     57  37  47 W15       30.29F
NEW CASTLE     FAIR      60  39  45 W9G16     30.31F
BEAVER COUNTY  SUNNY     61  41  48 SW9G16    30.32F
BUTLER*        SUNNY     58  38  47 SW13      30.32F
PITTSBURGH INT MOSUNNY   58  36  43 SW13      30.32F
PITTSBURGH     SUNNY     58  36  43 W6        30.32F
INDIANA*       SUNNY     55  39  54 W9        30.35F
LATROBE        NOT AVBL
WASHINGTON CO* SUNNY     58  38  47 W7G16     30.36F
$$

PAZ004>006-010>012-017>019-024>028-033>037-041-042-045-046-049>053-171800-
CENTRAL PENNSYLVANIA

CITY           SKY/WX    TMP DP  RH WIND       PRES   REMARKS
BRADFORD       SUNNY     54  35  48 W10       30.27F
DUBOIS         SUNNY     55  36  48 W13       30.29F
CLEARFIELD     SUNNY     55  38  52 S9        30.30F
JOHNSTOWN      SUNNY     52  35  52 W8        30.32F
ALTOONA        SUNNY     57  36  45 CALM      30.33F
STATE COLLEGE  MOSUNNY   57  36  44 SW3       30.31F
WILLIAMSPORT   SUNNY     54  38  54 VRB3      30.31F
SELINSGROVE    SUNNY     56  39  53 CALM      30.34F
FT INDIANTOWN  SUNNY     56  33  41 S7        30.32F
CAPITAL CITY   SUNNY     58  32  37 VRB3      30.34F
HARRISBURG     SUNNY     57  33  40 W8        30.33F
YORK           SUNNY     56  34  43 MISG      30.34F
$$

PAZ038>040-043-044-047-048-054-055-060>062-067>071-171800-
EASTERN PENNSYLVANIA

CITY           SKY/WX    TMP DP  RH WIND       PRES   REMARKS
SCRANTON       SUNNY     53  35  50 CALM      30.31F
MOUNT POCONO   SUNNY     52  25  35 W6        30.28F
ALLENTOWN      SUNNY     56  34  43 VRB7      30.33F
QUAKERTOWN*    SUNNY     54  34  47 W5        30.33F
READING        SUNNY     56  37  49 VRB6      30.33F
LANCASTER      SUNNY     56  36  47 VRB3      30.34F
COATESVILLE    SUNNY     54  34  47 N5        30.34F
POTTSTOWN      SUNNY     53  35  50 VRB6      30.34F
BLUE BELL      SUNNY     55  34  44 CALM      30.33F
DOYLESTOWN     SUNNY     54  35  48 CALM      30.31F
WILLOW GROVE   NOT AVBL
NORTH PHILA    SUNNY     59  35  40 VRB6      30.34F
PHILADELPHIA   SUNNY     55  31  39 CALM      30.33F
$$




USA.gov is the U.S. government's official web portal to all federal, state and local government web resources and services.